Temp
8 7 7 7 7 7 7 7 8 8 8 8 8 8 8 8 8 8 8 8 8 8 8 8 8 7 7 7 7 7 7 7 7
8 7 7 7 7 7 7 7 7 7 8 8 8 8 8 8 8 8 8 8 8 8 8 8 8 7 7 7 7 7 7 6 6
7 7 7 6 7 7 7 7 7 7 7 7 7 8 8 8 8 8 8 8 8 8 8 7 7 7 7 7 7 7 7 6 6
7 7 6 6 6 6 6 7 6 6 6 7 7 7 8 8 8 8 8 7 7 8 8 8 7 7 7 7 7 7 6 6 6
7 7 7 7 6 6 6 6 6 6 6 7 7 7 7 7 7 7 7 7 7 7 7 7 7 7 7 7 7 7 6 6 6
6 7 7 7 7 7 7 6 6 6 6 6 7 7 7 7 7 7 7 7 7 7 7 7 7 7 7 7 7 7 7 6 6
6 6 6 7 7 7 7 6 6 6 6 6 7 7 7 7 6 6 6 6 6 7 7 7 7 7 7 7 7 7 7 6 6
6 6 6 6 6 6 6 7 6 6 6 6 6 6 7 7 7 6 6 6 6 6 6 6 6 7 7 7 7 7 7 6 6
5 6 6 6 6 6 6 6 6 6 6 6 6 6 6 6 6 6 6 6 6 6 6 6 6 6 6 6 7 7 7 7 6
5 6 5 6 6 6 6 6 6 6 6 6 6 6 6 6 6 6 6 6 5 6 6 5 6 6 5 5 6 6 6 7 6
5 5 5 5 6 5 6 6 6 6 6 6 6 6 5 6 6 6 6 6 5 5 5 6 5 5 5 5 5 5 5 6 6
4 5 5 5 5 5 5 5 5 6 6 6 6 6 5 5 6 6 6 6 6 6 6 5 5 5 5 5 4 5 5 5 5
4 4 4 4 5 5 5 6 6 5 5 6 6 6 5 6 6 6 6 6 6 6 6 6 5 5 5 5 5 5 5 5 5
3 3 3 3 4 5 5 6 6 6 6 6 6 6 6 6 6 6 6 6 7 6 6 6 6 6 6 6 6 5 5 5 4
3 3 3 3 4 4 5 5 6 6 6 6 6 5 5 6 6 6 6 6 6 6 6 6 6 6 6 6 6 6 6 5 5
3 3 3 4 4 4 3 4 5 5 5 5 5 5 5 6 6 6 6 6 6 7 7 7 7 6 7 6 6 6 6 5 5
2 2 3 3 3 3 3 4 4 4 4 4 5 5 5 5 6 6 6 6 6 6 6 6 6 6 7 7 6 6 6 6 5
2 2 2 3 3 3 3 3 3 4 4 4 4 5 5 5 6 6 6 6 6 6 6 6 6 6 6 6 6 7 7 6 6
1 1 1 2 2 2 3 3 3 3 4 4 5 5 5 5 5 6 6 6 6 6 6 6 6 6 6 6 7 6 6 6 7
0 0 1 1 1 2 2 3 3 3 4 4 4 4 5 5 5 5 5 5 5 5 5 6 6 6 6 6 7 7 6 6 6
Height
3169 3170 3172 3173 3174 3175 3176 3177 3177 3177 3176 3176 3175 3175 3176 3175 3175 3174 3173 3172 3171 3171 3170 3169 3168 3167 3165 3164 3162 3161 3160 3158 3158
3167 3169 3171 3172 3173 3175 3176 3176 3177 3177 3177 3177 3177 3176 3177 3177 3176 3175 3174 3174 3174 3173 3172 3171 3170 3169 3168 3166 3165 3163 3162 3161 3159
3166 3168 3170 3172 3173 3175 3176 3176 3177 3177 3177 3177 3177 3178 3178 3178 3177 3177 3176 3176 3175 3174 3174 3173 3173 3172 3170 3169 3168 3166 3165 3164 3162
3165 3167 3169 3171 3172 3174 3175 3176 3177 3177 3177 3178 3178 3178 3179 3179 3178 3178 3178 3177 3177 3176 3175 3175 3174 3173 3173 3171 3170 3169 3168 3167 3166
3164 3166 3167 3169 3171 3172 3174 3176 3177 3177 3178 3178 3179 3180 3180 3180 3179 3179 3178 3178 3178 3178 3177 3176 3175 3174 3174 3173 3172 3171 3169 3169 3169
3163 3165 3166 3168 3169 3171 3173 3175 3176 3177 3178 3178 3179 3179 3180 3180 3179 3180 3180 3179 3179 3178 3178 3178 3178 3177 3175 3174 3174 3173 3171 3170 3169
3160 3163 3165 3167 3168 3170 3171 3173 3175 3176 3177 3178 3178 3179 3180 3180 3180 3180 3180 3180 3180 3180 3179 3178 3178 3177 3176 3175 3174 3174 3173 3172 3170
3157 3160 3162 3165 3167 3169 3170 3172 3173 3174 3176 3177 3178 3178 3179 3180 3180 3180 3181 3181 3181 3181 3180 3179 3179 3178 3177 3176 3175 3174 3174 3173 3172
3154 3157 3159 3161 3164 3166 3168 3170 3173 3174 3174 3175 3177 3178 3178 3179 3179 3180 3180 3180 3181 3181 3181 3180 3179 3178 3178 3177 3176 3175 3175 3173 3172
3150 3153 3156 3158 3161 3163 3166 3167 3169 3171 3172 3174 3176 3176 3177 3178 3178 3179 3179 3180 3181 3180 3181 3180 3180 3179 3178 3177 3176 3176 3175 3174 3173
3143 3148 3151 3154 3157 3159 3163 3165 3166 3169 3170 3171 3172 3174 3174 3175 3176 3177 3178 3178 3179 3179 3179 3179 3179 3179 3178 3177 3176 3176 3175 3174 3173
3138 3141 3145 3148 3152 3154 3158 3160 3163 3166 3168 3170 3171 3172 3172 3173 3174 3175 3176 3176 3177 3177 3177 3178 3178 3178 3177 3176 3176 3174 3175 3174 3174
3132 3131 3137 3142 3145 3150 3154 3155 3158 3162 3164 3166 3167 3168 3169 3170 3172 3171 3172 3173 3174 3175 3175 3175 3176 3176 3176 3176 3175 3174 3174 3174 3174
3123 3127 3130 3134 3138 3142 3147 3150 3152 3157 3159 3162 3162 3165 3166 3167 3168 3169 3169 3170 3172 3172 3172 3173 3173 3173 3174 3174 3174 3173 3172 3172 3172
3121 3124 3126 3128 3131 3134 3139 3143 3145 3149 3152 3155 3157 3159 3161 3161 3163 3164 3166 3166 3167 3169 3169 3170 3170 3170 3171 3171 3171 3172 3171 3171 3171
3112 3116 3121 3123 3125 3128 3132 3136 3139 3143 3145 3148 3151 3153 3155 3157 3159 3160 3160 3161 3162 3164 3165 3167 3167 3167 3168 3168 3169 3169 3169 3169 3169
3105 3110 3114 3116 3119 3122 3126 3130 3133 3136 3139 3143 3144 3147 3150 3151 3153 3154 3154 3155 3157 3159 3160 3162 3162 3163 3163 3163 3164 3164 3165 3165 3165
3098 3104 3106 3108 3112 3116 3119 3124 3128 3130 3132 3136 3138 3140 3142 3146 3147 3149 3149 3150 3152 3154 3156 3157 3157 3157 3157 3158 3159 3160 3161 3161 3162
3091 3096 3100 3102 3105 3110 3113 3116 3120 3123 3125 3129 3130 3133 3136 3137 3140 3142 3143 3144 3146 3147 3148 3150 3151 3150 3152 3153 3154 3154 3155 3156 3157
3085 3089 3092 3096 3100 3103 3106 3108 3112 3116 3118 3121 3125 3126 3128 3130 3132 3134 3136 3137 3140 3141 3141 3142 3143 3144 3146 3146 3148 3149 3150 3151 3152
Wind_Speed
15 14 11 8 7 7 6 5 5 5 4 4 5 6 9 8 9 9 10 12 12 11 10 10 11 12 13 13 13 11 11 12 11
16 16 13 10 7 7 6 4 4 4 6 6 5 5 7 7 8 9 9 10 12 12 11 11 11 11 13 14 14 13 11 12 12
17 16 14 12 10 7 5 4 5 5 5 6 6 8 8 7 8 8 10 11 12 13 12 12 11 12 12 13 15 14 12 11 12
17 17 17 15 12 10 6 5 5 6 6 7 7 8 9 9 8 8 9 11 13 14 13 13 12 11 12 13 14 15 15 11 11
17 18 17 16 15 13 11 8 6 6 6 7 8 9 9 7 9 9 10 10 11 12 13 13 13 12 12 13 13 13 14 13 9
18 18 17 16 15 14 12 11 9 8 8 7 6 7 8 5 9 8 8 9 10 11 12 13 13 14 14 13 13 13 13 12 11
20 19 18 17 16 15 14 13 11 11 9 8 5 4 4 4 6 6 6 7 7 8 11 11 11 11 12 13 13 13 13 12 11
23 21 19 18 16 16 15 14 14 14 12 10 7 3 1 3 4 3 4 5 6 7 7 8 9 10 10 10 10 12 12 12 12
26 23 22 20 19 18 17 16 15 15 16 11 7 4 3 2 3 3 2 2 2 4 5 6 7 8 9 9 9 9 10 11 10
28 26 24 22 21 20 20 19 19 18 17 15 11 8 6 6 5 5 5 5 5 4 5 6 8 8 8 8 9 9 9 9 10
31 30 28 26 23 21 21 20 20 21 20 19 16 12 10 9 8 8 8 8 9 8 8 8 9 8 8 8 9 9 10 9 8
34 32 30 30 25 22 19 21 21 21 21 20 19 16 13 11 12 11 12 11 11 12 11 11 10 9 7 6 6 8 9 10 9
27 25 30 35 30 31 29 22 22 19 23 23 22 21 18 15 14 14 16 15 13 13 12 12 11 11 11 9 7 9 9 9 8
29 29 30 32 32 37 31 34 27 27 31 31 27 25 21 19 18 17 18 18 16 15 14 14 13 12 12 10 10 9 10 9 7
39 36 31 31 35 33 36 38 35 33 32 32 28 24 23 22 21 22 21 20 19 16 15 15 15 14 14 14 13 12 10 11 10
33 36 33 30 28 27 28 30 37 37 35 33 30 29 26 24 25 25 24 23 21 19 18 17 16 17 16 15 15 15 13 12 11
34 34 33 31 28 30 31 28 31 32 30 30 29 29 28 28 27 27 27 25 23 21 20 19 19 18 17 17 16 16 16 15 15
32 34 33 30 30 31 28 30 33 31 30 29 30 30 30 29 30 30 28 26 24 22 21 21 21 21 21 19 19 18 18 18 18
33 33 32 31 32 31 32 32 31 31 32 32 32 32 31 31 32 31 29 27 24 23 23 22 22 23 24 22 21 21 20 20 20
34 34 33 33 33 33 35 35 35 34 33 33 38 33 35 35 35 33 30 29 27 25 25 25 26 26 25 25 24 23 22 22 22
Wind_Direction
172 170 175 167 162 152 142 125 105 101 99 83 71 65 70 64 60 50 43 36 34 41 47 48 50 49 48 48 54 61 73 71 67
174 178 174 177 171 161 155 142 126 106 96 88 79 69 62 59 57 55 45 36 38 32 32 40 41 41 40 42 42 47 60 73 77
176 180 177 179 178 170 164 154 134 117 103 96 84 71 68 59 53 47 39 30 29 36 35 33 30 31 38 37 40 42 47 57 72
178 181 185 183 183 179 176 155 133 122 111 102 93 84 81 71 64 51 42 37 30 29 32 31 31 29 25 33 37 40 40 42 54
184 185 188 189 190 189 184 172 165 157 140 118 105 91 79 73 67 58 52 41 34 32 29 28 30 31 31 26 30 37 43 44 43
191 192 193 194 194 191 192 185 181 173 154 133 118 100 94 74 68 56 50 48 40 36 36 35 30 27 30 31 28 28 35 43 46
202 202 202 201 201 203 199 197 192 180 170 154 139 105 85 66 72 56 49 47 45 38 37 38 39 37 30 29 31 29 28 33 40
211 208 209 211 209 207 210 211 200 192 185 179 172 155 73 54 50 52 30 36 44 49 42 36 32 31 35 32 29 32 31 30 31
216 216 216 213 215 215 212 212 215 208 204 205 205 205 259 319 356 360 328 337 11 25 26 26 27 24 23 29 31 29 32 34 35
222 222 223 223 223 223 220 220 218 216 219 220 222 227 249 278 300 322 308 280 292 303 320 344 352 3 12 10 10 23 31 31 28
225 225 226 226 226 231 234 230 229 227 226 224 223 227 245 262 280 297 299 276 263 272 283 301 317 333 347 359 356 358 9 26 28
239 231 226 229 222 226 241 243 238 239 236 237 238 241 243 256 273 289 296 281 267 260 266 275 284 295 309 330 341 328 343 355 13
228 231 239 230 227 232 248 249 250 247 240 243 248 242 249 253 262 281 287 281 267 264 263 266 269 277 283 292 292 305 323 334 345
252 252 247 238 233 234 231 236 226 238 234 237 233 244 250 254 261 275 282 276 268 262 264 265 267 271 276 280 281 285 297 305 325
239 237 252 243 242 238 233 232 234 240 242 240 242 243 246 252 261 272 275 267 262 262 263 265 269 270 272 276 278 281 284 289 295
236 247 248 242 240 243 244 241 236 237 237 240 241 241 246 252 260 269 272 261 256 258 260 264 267 270 273 276 279 280 276 277 278
233 241 241 241 243 240 239 241 242 235 234 236 238 242 247 251 258 264 265 259 257 259 263 266 266 266 265 264 265 267 268 265 264
237 240 242 240 242 235 237 240 244 240 240 241 244 246 250 256 260 265 262 256 257 260 263 264 265 264 263 261 260 260 264 268 268
242 239 239 238 236 236 239 239 241 242 243 246 252 253 254 257 260 262 259 257 257 259 259 259 259 261 263 262 260 261 260 258 261
239 239 240 238 238 238 239 241 243 247 247 249 250 256 256 258 260 258 255 255 256 257 258 258 257 258 260 263 264 264 264 265 263